Theta_e
311 323 320 320 328 332 336 336 336 337 336 336 335 335 338 341 360 368 355 352 351 357 357 350 344 340 340 344 350 349 344 340 335 337 336 334 334 336 341 343 341 339 342 343 342 340 337 336 332
322 318 318 324 329 335 336 335 337 337 336 335 335 334 335 340 355 359 354 351 353 358 358 354 342 340 340 344 349 348 345 341 337 339 337 335 334 336 340 345 344 339 339 343 341 339 335 331 330
317 317 321 327 330 332 336 337 336 337 336 335 334 333 335 340 355 359 355 352 356 358 357 355 341 339 341 344 349 347 344 342 340 341 338 336 334 334 339 343 346 343 337 335 335 335 332 330 328
316 318 320 326 328 331 332 336 337 336 336 335 334 333 333 334 354 359 354 352 357 357 355 355 341 338 342 346 348 346 345 345 343 344 340 338 335 332 338 342 345 344 338 330 330 329 326 327 327
316 319 320 322 325 328 330 332 334 335 334 334 333 333 333 344 351 355 352 354 355 354 357 352 339 337 342 346 346 346 346 346 346 346 342 338 334 330 338 340 339 338 336 331 329 326 327 327 327
318 318 318 320 322 323 325 328 328 330 331 332 331 330 332 339 347 353 354 356 355 353 358 351 338 335 339 343 344 345 345 345 345 345 340 338 332 334 336 337 337 336 335 328 329 329 329 328 328
320 319 318 319 321 322 324 325 326 326 328 330 329 329 331 334 342 355 355 356 355 355 355 351 344 340 336 338 338 340 340 340 340 339 337 336 330 335 337 336 334 334 332 331 330 330 329 330 333
321 321 320 320 319 320 323 323 323 323 324 327 327 327 328 332 348 355 356 356 355 356 353 350 346 343 343 343 336 335 335 334 334 335 335 333 331 335 338 337 338 337 337 331 330 331 331 332 333
322 322 322 322 322 322 323 322 323 322 322 323 323 325 331 347 347 352 357 357 356 355 354 349 347 344 342 343 342 335 333 332 334 336 333 335 340 343 345 343 344 338 339 337 330 330 332 334 334
323 323 323 323 324 324 323 322 321 321 320 321 321 323 324 340 347 348 356 358 357 355 354 350 348 345 343 344 346 343 342 341 341 342 343 340 340 342 341 341 342 341 339 338 335 331 331 333 337
324 323 323 323 324 323 323 323 321 320 320 321 321 323 334 344 346 348 350 354 356 355 354 351 350 347 345 345 347 344 344 343 343 343 344 341 341 344 342 343 346 346 343 343 337 337 336 335 334
323 322 322 322 324 323 322 322 322 320 321 322 322 324 341 348 346 347 348 349 355 354 354 353 353 350 347 347 348 345 346 346 346 346 347 343 345 346 344 342 344 344 342 341 339 336 336 336 336
322 323 323 322 322 323 322 321 321 321 321 321 321 323 324 328 346 346 349 348 353 355 355 355 356 354 351 350 350 347 348 348 348 348 349 348 348 347 346 343 342 341 340 341 339 338 338 338 340
321 322 322 322 322 322 322 321 320 322 322 321 321 321 322 326 330 346 350 351 353 354 356 357 358 357 354 352 351 350 350 349 350 349 350 350 349 348 347 346 344 342 340 340 343 340 339 340 339
321 320 322 322 322 322 321 321 321 321 322 322 321 320 321 324 327 345 349 352 353 355 358 359 358 358 357 354 354 353 352 352 350 350 350 351 351 350 349 346 345 343 342 343 345 345 348 348 347
320 321 322 322 322 321 321 321 322 322 322 321 322 322 321 323 326 335 348 353 354 355 359 360 358 359 358 357 356 355 353 352 352 350 350 351 350 351 351 347 347 346 347 349 348 348 348 343 338
321 322 323 322 323 322 321 322 322 323 322 322 322 322 321 323 326 329 351 354 356 357 359 361 359 358 359 357 358 356 355 355 352 350 349 351 350 349 351 351 349 346 339 333 330 331 330 333 333
321 322 322 324 324 323 322 322 322 323 323 324 323 323 322 321 325 328 340 351 353 355 358 361 361 359 357 357 358 356 354 354 353 351 350 350 352 350 350 346 343 339 334 330 324 329 324 325 329
321 321 322 323 323 324 322 323 323 323 323 323 324 324 324 322 324 325 328 344 352 353 358 360 361 359 356 357 356 355 355 354 352 351 353 352 350 348 345 342 337 333 329 327 326 328 328 329 320
321 320 322 323 324 324 324 323 324 323 323 323 324 324 325 323 322 326 326 332 342 348 353 355 360 359 359 356 354 354 355 353 352 351 351 348 347 345 342 339 334 329 330 331 329 325 327 330 328
320 321 321 323 323 323 323 324 324 324 323 324 323 324 325 325 323 325 326 327 331 340 348 354 354 356 356 355 355 355 354 351 350 350 345 345 343 342 340 337 334 331 330 329 325 320 333 336 332
318 319 320 322 323 324 322 324 325 325 324 323 323 324 324 325 324 323 325 326 328 334 343 349 353 352 355 356 354 353 352 351 349 348 345 344 341 338 337 335 332 329 327 326 330 334 334 334 335
317 319 320 321 323 324 323 322 323 325 324 324 324 324 324 325 324 323 324 324 325 330 337 345 352 350 352 354 353 354 351 348 345 343 341 336 334 333 334 335 335 336 334 334 335 333 332 331 329
318 317 320 322 323 328 323 323 324 323 325 324 324 324 324 324 324 324 324 324 324 328 337 349 350 349 352 352 352 352 349 347 342 339 337 335 336 334 334 335 335 333 332 331 329 329 327 324 323
317 321 327 330 327 326 323 324 324 325 325 325 324 324 324 325 324 324 324 326 329 338 348 347 347 347 350 344 344 346 342 340 335 335 332 333 332 331 331 330 330 329 327 325 323 323 322 322 321
316 321 330 332 331 325 323 324 324 324 325 325 324 324 324 324 324 324 326 340 342 345 343 340 341 341 342 339 337 338 338 336 333 330 325 327 328 328 328 326 325 323 323 322 322 322 322 321 321
316 321 326 329 322 324 324 323 323 324 323 324 324 324 324 324 324 328 343 341 340 339 339 339 340 340 339 338 334 333 332 331 330 328 328 327 326 324 323 323 322 321 321 321 321 321 321 321 321
317 319 325 327 333 329 323 324 324 324 324 323 324 324 325 325 338 341 338 338 337 337 339 338 339 339 335 333 332 330 330 329 327 326 324 322 320 320 321 321 321 320 320 320 320 320 319 320 319
321 321 321 323 327 331 325 328 324 325 324 324 325 334 340 341 339 337 337 338 339 339 339 338 336 334 332 331 329 328 327 326 325 324 322 321 319 319 319 319 319 319 319 319 320 320 319 318 319
321 322 324 329 325 325 328 325 324 325 324 329 342 341 336 336 337 338 338 337 336 336 335 334 332 331 330 329 328 327 325 324 322 321 321 320 320 319 319 319 318 318 317 318 318 318 318 317 317
Wind_Speed
7 8 10 10 8 8 19 21 19 3 6 5 5 7 8 16 12 5 16 10 26 28 29 31 28 25 22 20 24 24 24 23 23 22 21 21 22 22 21 18 16 15 14 13 12 10 8 9 9
8 8 12 7 10 16 15 21 23 8 5 8 6 9 10 11 16 10 13 17 26 27 27 26 28 25 22 22 25 26 25 23 22 21 20 21 21 21 21 17 15 14 13 12 11 9 8 8 9
7 11 9 9 17 20 19 20 19 14 6 6 5 2 5 5 8 6 15 21 25 25 26 25 30 25 23 23 26 26 25 23 23 21 19 19 20 20 20 17 15 13 13 11 10 9 8 9 9
8 7 8 15 24 24 26 23 8 6 14 7 10 5 5 6 5 6 16 22 23 23 24 26 30 26 24 25 26 26 25 23 22 20 19 19 19 19 18 15 12 11 10 10 10 10 10 10 10
14 8 13 19 27 26 21 18 18 7 14 13 15 14 7 10 5 9 19 23 22 23 22 26 30 27 26 26 26 26 24 23 22 20 18 19 19 20 18 15 13 11 10 10 11 11 11 11 12
9 9 15 18 26 24 24 24 17 16 13 11 11 10 10 14 8 14 20 22 22 23 21 26 30 28 27 27 26 25 24 23 21 20 19 19 19 20 18 15 13 12 12 12 12 12 12 13 13
18 15 20 23 23 21 20 22 18 20 20 17 9 14 12 12 13 17 20 22 22 23 23 25 25 27 27 26 26 25 24 23 22 21 20 20 20 19 17 15 13 12 12 12 12 13 13 13 14
14 15 26 22 21 25 18 11 10 20 20 17 13 8 12 9 15 18 21 23 23 23 25 26 26 25 23 22 24 24 23 22 21 20 20 20 20 19 17 15 13 12 11 11 12 13 14 14 14
17 17 21 28 25 19 16 12 10 12 16 16 8 15 3 8 13 19 22 22 24 24 26 27 26 25 24 21 21 23 22 21 20 19 19 18 14 14 13 12 13 12 12 11 12 13 14 14 15
21 17 31 23 21 21 15 13 14 15 13 14 15 16 15 7 14 17 19 21 25 26 27 28 27 26 25 22 21 19 18 17 17 15 15 15 14 13 14 13 14 13 12 12 12 13 13 14 13
26 29 21 23 23 20 18 17 11 11 17 17 17 17 12 14 15 17 22 25 26 26 26 27 26 26 26 22 20 20 19 18 17 17 16 15 14 13 13 13 12 12 13 10 12 12 13 14 14
28 29 26 28 25 17 21 16 18 18 14 11 13 16 4 13 15 16 20 24 26 26 24 25 26 26 24 22 20 20 19 18 16 16 16 16 14 12 12 13 11 12 14 12 14 12 12 13 15
30 29 26 24 25 26 17 22 23 22 19 17 11 10 11 10 15 18 21 24 27 25 25 24 25 24 23 19 19 20 19 18 17 17 18 17 15 13 12 11 10 11 10 13 11 12 11 11 12
26 26 27 28 23 21 25 23 22 23 18 19 21 17 16 14 13 20 22 26 24 26 25 24 25 24 23 20 17 18 17 17 16 17 17 18 15 13 11 10 9 10 9 8 7 9 11 12 12
24 27 24 26 29 26 20 29 32 22 18 22 19 19 19 17 14 18 25 24 28 26 25 24 24 23 22 21 18 17 17 16 17 16 15 16 16 12 10 11 9 9 8 5 8 8 8 10 13
16 25 26 31 25 28 23 34 25 25 24 23 22 21 22 21 18 22 25 21 24 26 25 24 24 24 23 23 20 19 17 17 16 16 15 16 16 13 11 9 1 3 5 4 5 4 5 7 8
26 25 34 29 30 24 30 36 26 20 28 26 24 22 21 22 19 20 28 25 29 26 26 24 24 24 23 21 18 19 13 15 14 14 16 18 16 10 8 2 4 10 11 12 14 12 14 15 15
29 32 29 28 27 28 30 33 25 22 19 26 26 25 24 24 22 21 22 28 19 25 23 24 23 21 21 20 16 15 14 15 12 12 7 7 9 8 10 10 10 12 12 13 14 13 11 17 17
31 29 26 24 26 29 28 27 28 25 22 24 23 24 25 26 24 26 24 27 25 25 23 24 24 20 24 20 18 17 18 15 10 6 7 11 11 12 12 13 16 15 14 15 12 3 8 3 5
33 30 31 17 19 25 27 28 26 27 24 21 23 23 25 25 25 23 28 27 25 24 24 21 17 18 24 21 19 16 15 15 11 11 13 12 12 12 11 14 15 18 15 9 7 14 6 9 9
33 33 30 27 13 22 19 22 25 28 27 21 21 21 24 26 26 24 23 26 27 25 24 22 20 22 21 19 16 13 15 11 11 14 13 12 11 11 11 11 11 12 9 9 12 12 8 12 11
31 30 32 30 23 18 22 19 23 27 28 26 22 22 22 24 26 25 24 21 25 26 25 23 21 21 20 17 16 20 17 16 15 15 13 13 11 11 10 12 11 10 9 10 7 7 10 8 12
30 27 27 29 26 22 22 19 19 28 27 28 28 26 23 23 23 26 23 26 27 26 25 23 21 19 20 19 19 19 14 11 12 12 14 11 12 12 11 10 9 8 7 5 5 3 4 2 7
17 26 28 24 22 22 26 23 22 23 31 30 28 28 25 23 23 25 26 28 27 23 24 23 21 19 20 18 17 15 14 15 18 17 14 6 4 6 7 9 8 5 5 5 4 2 3 3 5
23 22 13 12 18 18 27 23 21 29 27 28 29 29 26 25 23 22 24 23 25 23 21 20 21 20 21 20 22 22 23 27 29 22 25 17 4 6 8 10 8 6 5 4 3 2 4 5 6
30 25 15 24 17 24 27 31 24 26 17 25 26 25 24 25 22 23 21 19 20 20 21 22 23 23 25 25 27 23 22 22 22 20 20 26 2 4 1 6 7 5 3 1 1 6 4 5 8
24 23 22 16 20 20 27 26 28 25 8 13 20 26 25 25 23 20 22 19 23 22 22 24 24 24 25 25 23 18 14 12 13 17 20 19 22 7 5 5 5 4 2 2 5 7 6 7 9
28 27 20 13 9 17 25 34 22 29 24 17 15 22 24 21 20 19 17 19 24 24 25 27 27 27 25 22 19 17 17 18 19 18 19 21 16 11 6 5 3 2 1 4 6 7 7 9 10
19 24 21 19 11 4 20 22 22 28 23 21 20 22 18 16 15 14 16 24 27 26 27 27 26 24 22 21 22 21 19 17 17 18 16 17 13 10 6 3 1 2 3 6 8 9 10 9 11
23 13 27 15 24 14 12 13 26 21 20 22 23 19 17 15 14 15 18 22 25 25 25 25 25 24 24 24 24 22 20 18 17 16 16 13 10 7 5 2 2 4 5 8 9 10 10 11 13
Wind_Direction
259 263 256 260 244 232 250 243 256 108 206 228 23 253 302 325 39 44 127 131 140 150 159 162 167 168 170 175 177 177 174 172 169 166 165 163 163 161 158 154 150 150 152 156 158 160 158 160 161
258 237 238 262 236 242 237 250 263 223 213 120 228 232 241 254 68 106 129 144 144 150 158 162 168 169 170 172 175 176 175 173 171 169 168 167 167 165 163 158 154 153 154 157 164 171 167 165 166
241 227 250 227 233 241 249 233 217 182 185 193 258 259 346 288 74 120 98 149 146 151 158 165 167 170 171 171 174 176 176 175 174 173 172 172 171 171 170 168 164 162 165 167 171 177 174 170 172
213 211 248 255 246 233 249 264 306 198 244 181 253 284 165 21 3 104 139 151 147 153 159 171 169 170 171 172 174 177 177 178 177 177 176 175 175 175 174 175 174 173 172 172 175 180 179 179 178
230 250 233 230 243 256 267 252 285 259 242 231 221 233 208 130 82 124 150 153 155 156 157 164 170 170 172 172 177 179 182 181 179 180 180 179 178 177 177 179 181 182 182 181 184 185 184 184 184
222 236 237 238 244 238 240 256 242 253 244 228 227 250 258 101 155 153 159 159 159 157 158 165 172 173 174 177 180 182 183 182 183 183 184 185 184 182 182 184 187 189 191 192 191 192 192 192 190
234 225 240 248 258 255 237 226 222 242 241 229 213 247 236 154 180 162 164 163 161 158 161 164 168 174 177 180 179 181 182 184 186 187 187 187 187 187 188 190 191 195 199 200 200 200 201 201 202
232 246 252 244 249 256 254 251 208 224 252 250 255 235 238 217 142 165 170 166 165 162 164 167 168 171 173 179 184 181 182 184 188 189 188 187 189 193 196 197 201 206 209 210 212 212 210 211 210
226 245 241 239 244 251 252 252 206 240 251 232 173 230 122 117 165 174 175 172 169 167 167 170 172 172 173 175 181 183 185 185 187 189 189 189 187 201 206 211 226 217 214 219 222 222 224 224 225
224 229 239 243 250 251 247 221 254 207 230 234 215 218 238 197 203 192 185 180 176 175 170 173 172 174 176 176 178 178 182 182 183 186 190 184 194 200 205 214 218 228 223 224 227 226 229 235 241
220 237 245 243 257 264 264 243 219 236 233 220 207 219 204 227 203 209 196 191 178 180 174 174 172 177 181 178 177 183 185 186 189 188 189 192 198 200 208 206 212 219 229 231 231 228 225 228 236
229 237 245 266 271 229 263 260 247 228 240 248 216 204 169 221 208 218 205 196 175 177 177 172 173 180 190 179 181 189 189 193 195 196 193 195 207 204 213 219 208 212 221 226 223 230 229 239 241
231 239 244 251 249 257 238 242 248 245 218 251 246 152 210 235 217 221 225 212 168 177 181 176 174 182 192 187 184 195 195 194 200 195 201 203 207 207 211 225 236 222 230 217 238 242 227 236 254
236 240 246 243 254 243 249 244 238 235 240 220 236 209 215 227 227 212 219 215 168 174 181 179 181 183 188 193 186 198 201 190 205 206 204 208 212 208 214 219 223 238 245 254 291 244 252 239 251
259 258 245 241 235 235 244 249 238 236 217 229 219 224 226 221 211 222 205 200 172 173 182 182 184 184 188 196 193 196 199 212 204 213 201 207 215 217 221 218 226 235 236 234 282 295 305 305 314
248 249 242 234 229 234 220 250 234 227 223 215 224 223 219 223 213 226 192 189 165 183 179 184 186 187 190 195 194 201 206 207 209 209 207 206 210 225 203 239 205 74 98 54 333 313 315 301 322
239 238 233 243 225 218 217 241 242 236 211 222 219 220 217 210 208 208 201 171 181 190 174 186 189 188 186 194 198 204 198 205 226 220 209 193 209 210 213 265 99 90 83 64 46 48 31 356 343
223 228 236 242 223 216 222 236 242 213 220 212 219 217 214 211 206 195 224 190 203 179 186 184 189 190 182 192 185 185 210 207 225 208 190 188 181 201 160 147 135 121 105 88 69 47 47 17 336
238 235 241 232 250 220 218 236 225 239 216 212 215 211 210 209 205 194 198 210 190 181 196 183 189 183 174 186 180 191 199 201 194 166 154 145 150 158 157 151 136 143 137 128 111 46 244 62 345
247 248 256 258 233 236 215 223 247 220 221 222 216 211 209 203 206 194 188 194 197 181 188 185 176 184 173 178 185 199 191 180 167 157 158 159 166 164 157 156 156 158 165 224 237 187 188 237 246
232 237 242 248 245 239 220 238 223 238 227 215 226 210 208 203 199 199 189 188 185 185 185 175 178 182 172 176 191 171 175 175 158 159 153 165 167 169 172 167 163 173 203 211 196 153 262 285 280
238 230 235 246 243 226 210 235 222 222 223 220 218 207 203 199 198 199 192 180 191 187 183 174 171 180 179 180 181 168 176 180 167 163 158 157 177 164 163 158 157 155 163 158 178 244 253 279 294
248 236 230 232 241 242 212 222 253 201 218 212 212 205 199 197 196 197 184 192 191 186 173 172 167 175 178 173 174 176 186 171 144 144 135 149 140 141 144 167 170 175 187 174 168 214 245 243 274
254 240 245 229 231 232 222 217 225 234 207 210 208 207 198 199 196 197 188 191 191 179 169 158 159 167 170 166 178 179 177 146 120 114 103 78 95 100 141 167 173 162 162 153 148 169 249 275 278
213 228 219 227 221 224 210 227 218 202 205 208 208 203 205 203 198 190 186 189 166 159 149 149 150 139 148 125 125 125 126 126 122 129 116 55 113 103 118 119 125 137 135 131 149 226 247 251 269
213 217 218 198 205 208 221 214 219 231 295 189 203 201 191 196 192 188 175 132 142 134 150 141 140 134 131 123 121 128 132 137 141 143 134 142 67 7 66 120 119 125 122 149 245 249 257 273 283
223 217 211 264 230 210 211 229 225 210 220 181 194 177 189 188 188 162 127 141 135 153 154 143 139 136 131 133 133 134 136 142 135 129 133 140 147 183 206 119 113 105 75 332 307 288 290 288 291
236 202 211 230 231 233 210 202 218 211 181 188 213 171 177 170 115 119 137 132 154 159 149 146 145 145 139 135 131 129 125 123 120 118 114 120 121 147 159 127 113 88 345 306 310 307 302 304 303
209 226 198 234 212 212 216 192 198 187 192 168 195 134 121 104 118 132 132 149 147 141 141 139 138 137 134 129 128 126 123 119 117 112 112 113 125 143 141 122 137 283 301 310 318 311 300 300 303
221 208 236 204 226 232 268 200 196 174 153 178 111 115 113 116 128 132 136 134 139 136 141 138 135 131 127 126 122 122 120 116 111 113 113 123 132 132 132 125 262 289 316 312 309 306 310 310 315